Weather History for K2WX - October, 2013

Change the Weather History Date:

Saturday, October 12, 2013

  Actual Average Record
Temperature  
Mean Temperature 42 °F 47 °F  
Max Temperature 53 °F 59 °F 75 °F (1996)
Min Temperature 31 °F 35 °F 18 °F (2006)
Degree Days  
Heating Degree Days 23 18  
Month to date heating degree days 217 195  
Since 1 July heating degree days 346 486  
Cooling Degree Days 0 0  
Month to date cooling degree days 0 0  
Year to date cooling degree days 587 512  
Moisture  
Dew Point 27 °F    
Average Humidity 58    
Maximum Humidity 85    
Minimum Humidity 30    
Precipitation  
Precipitation 0.00 in 0.01 in 0.14 in (2008)
Month to date precipitation 0.50 0.10  
Year to date precipitation 12.15 13.32  
Sea Level Pressure  
Sea Level Pressure 30.09 in    
Wind  
Wind Speed 12 mph (WNW)    
Max Wind Speed 23 mph    
Max Gust Speed 28 mph    
T = Trace of Precipitation, MM = Missing Value Source: NWS Daily Summary

Daily Weather History Graph

Daily Weather History Graph

Search for Another Location

Airport or City:

Trip Planner

Search our weather history database for the weather conditions in past years. The results will help you decide how hot, cold, wet, or windy it might be!

Date:

Astronomy

Oct. 12, 2013 Rise Set
Actual Time 7:07 AM MDT 6:13 PM MDT
Civil Twilight 6:37 AM MDT 6:43 PM MDT
Nautical Twilight 6:02 AM MDT 7:17 PM MDT
Astronomical Twilight 5:28 AM MDT 7:51 PM MDT
Moon 2:41 PM MDT (10/12) No Moon Set
Length of Visible Light 12h 05m
Length of Day
11h 06m
First Quarter, 59% of the Moon is Illuminated
Oct 12
First Quarter
Oct 18
Full
Oct 26
Last Quarter
Nov 3
New
Nov 9
First Quarter

Hourly Weather History & Observations

Time (MDT) Temp. Windchill Dew Point Humidity Pressure Visibility Wind Dir Wind Speed Gust Speed Precip Events Conditions
12:56 AM 44.1 °F 35.4 °F 28.0 °F 53% 29.90 in - WNW 21.9 mph - N/A   Unknown
1:56 AM 41.0 °F 32.5 °F 30.0 °F 65% 29.94 in - West 17.3 mph - N/A   Unknown
2:56 AM 37.9 °F 28.9 °F 28.0 °F 68% 29.95 in - WNW 16.1 mph - N/A   Unknown
3:56 AM 36.0 °F 27.5 °F 27.0 °F 70% 29.99 in - WNW 12.7 mph - N/A   Unknown
4:56 AM 34.0 °F 25.0 °F 28.0 °F 79% 30.01 in - West 12.7 mph - N/A   Unknown
5:56 AM 34.0 °F 24.6 °F 28.0 °F 79% 30.04 in - West 13.8 mph - N/A   Unknown
6:56 AM 32.0 °F 23.0 °F 28.0 °F 85% 30.06 in - West 11.5 mph - N/A   Unknown
7:56 AM 33.1 °F 23.4 °F 28.9 °F 85% 30.07 in - West 13.8 mph - N/A   Unknown
8:56 AM 42.1 °F 33.1 °F 30.9 °F 65% 30.08 in - WNW 20.7 mph - N/A   Unknown
9:56 AM 45.0 °F 37.9 °F 28.9 °F 53% 30.09 in - WNW 16.1 mph - N/A   Unknown
10:56 AM 48.9 °F - 26.1 °F 41% 30.09 in - WNW 15.0 mph 23.0 mph N/A   Unknown
11:56 AM 50.0 °F - 24.1 °F 36% 30.09 in - NW 13.8 mph - N/A   Unknown
12:56 PM 52.0 °F - 21.9 °F 31% 30.09 in - WNW 15.0 mph 23.0 mph N/A   Unknown
1:56 PM 53.1 °F - 24.1 °F 32% 30.09 in - WNW 16.1 mph 21.9 mph N/A   Unknown
2:56 PM 52.0 °F - 24.1 °F 34% 30.10 in - WNW 9.2 mph - N/A   Unknown
3:56 PM 53.1 °F - 26.1 °F 35% 30.11 in - WNW 16.1 mph - N/A   Unknown
4:56 PM 52.0 °F - 25.0 °F 35% 30.12 in - WNW 11.5 mph - N/A   Unknown
5:56 PM 46.9 °F - 28.0 °F 48% 30.14 in - North 9.2 mph - N/A   Unknown
6:56 PM 45.0 °F 41.2 °F 27.0 °F 49% 30.17 in - NNE 6.9 mph - N/A   Unknown
7:56 PM 42.1 °F 36.6 °F 28.0 °F 58% 30.17 in - NE 9.2 mph - N/A   Unknown
8:56 PM 41.0 °F 36.4 °F 28.0 °F 60% 30.18 in - ESE 6.9 mph - N/A   Unknown
9:56 PM 41.0 °F 38.0 °F 28.0 °F 60% 30.19 in - SSE 4.6 mph - N/A   Unknown
10:56 PM 41.0 °F 39.0 °F 27.0 °F 57% 30.19 in - SE 3.5 mph - N/A   Unknown
11:56 PM 39.0 °F 36.8 °F 27.0 °F 62% 30.20 in - SSW 3.5 mph - N/A   Unknown